When you browse on this site, cookies collect data to enhance your experience and personalize the content and advertising you see.
Visit our Privacy Policy to learn more. By continuing to use the site, you agree to this use of cookies and data.
  • In Latvia
  • List of Countries
  • For 7 days
  • Water Temperature
  • Weather Map
  • Weather Widgets
  • user-avatar
    Login

    Hourly Weather Locarno

    Today, 29 May, Friday

    Time Temperature Precipitation Wind Pressure Humidity
    00:00 +12°C° 0 mm 2 mps 716 mmHg 82%
    01:00 +11°C° 0 mm 3 mps 716 mmHg 83%
    02:00 +10°C° 0 mm 3 mps 716 mmHg 83%
    03:00 +9°C° 0 mm 2 mps 715 mmHg 83%
    04:00 +9°C° 0 mm 2 mps 715 mmHg 83%
    05:00 +10°C° 0.1 mm 2 mps 716 mmHg 79%
    06:00 +12°C° 0.1 mm 1 mps 716 mmHg 74%
    07:00 +13°C° 0 mm 1 mps 716 mmHg 68%
    08:00 +14°C° 0.1 mm 2 mps 716 mmHg 66%
    09:00 +15°C° 0.1 mm 2 mps 715 mmHg 65%
    10:00 +16°C° 0.1 mm 2 mps 715 mmHg 64%
    11:00 +16°C° 0.2 mm 2 mps 715 mmHg 65%
    12:00 +16°C° 0.2 mm 2 mps 715 mmHg 66%
    13:00 +19°C° 0 mm 1 mps 715 mmHg 61%
    14:00 +19°C° 0 mm 1 mps 715 mmHg 58%
    15:00 +20°C° 0 mm 1 mps 714 mmHg 55%
    16:00 +19°C° 0 mm 2 mps 714 mmHg 52%
    17:00 +19°C° 0 mm 1 mps 714 mmHg 59%
    18:00 +18°C° 0 mm 1 mps 713 mmHg 65%
    19:00 +16°C° 0 mm 1 mps 713 mmHg 71%
    20:00 +15°C° 0 mm 1 mps 713 mmHg 77%
    21:00 +12°C° 0 mm 0 mps 713 mmHg 82%
    22:00 +11°C° 0 mm 0 mps 713 mmHg 88%
    23:00 +11°C° 0 mm 0 mps 714 mmHg 88%

    Tomorrow, 30 May, Saturday

    Time Temperature Precipitation Wind Pressure Humidity
    00:00 +12°C° 0 mm 1 mps 714 mmHg 89%
    01:00 +12°C° 0 mm 1 mps 714 mmHg 89%
    02:00 +12°C° 0 mm 1 mps 714 mmHg 88%
    03:00 +12°C° 0 mm 1 mps 714 mmHg 87%
    04:00 +11°C° 0 mm 0 mps 713 mmHg 85%
    05:00 +12°C° 0 mm 0 mps 713 mmHg 82%
    06:00 +13°C° 0 mm 0 mps 713 mmHg 78%
    07:00 +14°C° 0 mm 0 mps 713 mmHg 75%
    08:00 +16°C° 0 mm 1 mps 713 mmHg 67%
    09:00 +19°C° 0 mm 1 mps 713 mmHg 60%
    10:00 +20°C° 0 mm 1 mps 713 mmHg 52%
    11:00 +21°C° 0.1 mm 1 mps 713 mmHg 52%
    12:00 +20°C° 0.1 mm 2 mps 712 mmHg 52%
    13:00 +21°C° 0.1 mm 2 mps 712 mmHg 52%
    14:00 +20°C° 0.5 mm 2 mps 712 mmHg 56%
    15:00 +21°C° 0.5 mm 1 mps 711 mmHg 60%
    16:00 +20°C° 0.5 mm 1 mps 711 mmHg 64%
    17:00 +19°C° 0.6 mm 1 mps 711 mmHg 70%
    18:00 +18°C° 0.6 mm 1 mps 711 mmHg 76%
    19:00 +16°C° 0.6 mm 1 mps 711 mmHg 83%
    20:00 +15°C° 0.4 mm 1 mps 711 mmHg 85%
    21:00 +14°C° 0.4 mm 1 mps 711 mmHg 87%
    22:00 +12°C° 0.4 mm 2 mps 712 mmHg 89%
    23:00 +12°C° 0.1 mm 1 mps 712 mmHg 89%

    Day after tomorrow, 31 May, Sunday

    Time Temperature Precipitation Wind Pressure Humidity
    00:00 +12°C° 0.1 mm 1 mps 712 mmHg 89%
    01:00 +11°C° 0.1 mm 1 mps 712 mmHg 89%
    02:00 +11°C° 0.2 mm 1 mps 712 mmHg 89%
    03:00 +11°C° 0.2 mm 1 mps 712 mmHg 89%
    04:00 +11°C° 0.2 mm 1 mps 712 mmHg 90%
    05:00 +11°C° 0.3 mm 1 mps 712 mmHg 90%
    06:00 +11°C° 0.3 mm 0 mps 712 mmHg 89%
    07:00 +11°C° 0.3 mm 0 mps 712 mmHg 89%
    08:00 +13°C° 0.1 mm 1 mps 712 mmHg 87%
    09:00 +14°C° 0.1 mm 1 mps 712 mmHg 85%
    10:00 +15°C° 0.1 mm 1 mps 712 mmHg 83%
    11:00 +16°C° 0.2 mm 1 mps 712 mmHg 79%
    12:00 +18°C° 0.2 mm 1 mps 712 mmHg 74%
    13:00 +19°C° 0.2 mm 1 mps 712 mmHg 69%
    14:00 +20°C° 0.2 mm 1 mps 712 mmHg 67%
    15:00 +20°C° 0.2 mm 1 mps 712 mmHg 64%
    16:00 +21°C° 0.2 mm 1 mps 712 mmHg 61%
    17:00 +20°C° 0.1 mm 1 mps 712 mmHg 66%
    18:00 +19°C° 0.1 mm 1 mps 712 mmHg 71%
    19:00 +19°C° 0.1 mm 1 mps 712 mmHg 76%
    20:00 +16°C° 0 mm 1 mps 712 mmHg 80%
    21:00 +14°C° 0 mm 1 mps 712 mmHg 85%
    22:00 +13°C° 0 mm 1 mps 712 mmHg 89%
    23:00 +12°C° 0 mm 1 mps 712 mmHg 88%

    1 June, Monday

    Time Temperature Precipitation Wind Pressure Humidity
    00:00 +12°C° 0 mm 1 mps 712 mmHg 88%
    01:00 +11°C° 0 mm 1 mps 712 mmHg 87%
    02:00 +11°C° 0 mm 1 mps 712 mmHg 87%
    03:00 +11°C° 0 mm 1 mps 712 mmHg 87%
    04:00 +11°C° 0 mm 1 mps 712 mmHg 87%
    05:00 +13°C° 0 mm 1 mps 712 mmHg 83%
    06:00 +13°C° 0 mm 0 mps 713 mmHg 79%
    07:00 +15°C° 0 mm 0 mps 713 mmHg 74%
    08:00 +19°C° 0 mm 1 mps 713 mmHg 68%
    09:00 +20°C° 0 mm 1 mps 713 mmHg 63%
    10:00 +22°C° 0 mm 1 mps 713 mmHg 57%
    11:00 +22°C° 0 mm 1 mps 713 mmHg 56%
    12:00 +23°C° 0 mm 2 mps 713 mmHg 56%
    13:00 +23°C° 0 mm 2 mps 713 mmHg 56%
    14:00 +23°C° 0.2 mm 2 mps 713 mmHg 58%
    15:00 +23°C° 0.2 mm 2 mps 713 mmHg 61%
    16:00 +23°C° 0.2 mm 2 mps 712 mmHg 63%
    17:00 +22°C° 0.3 mm 1 mps 712 mmHg 69%
    18:00 +21°C° 0.3 mm 1 mps 712 mmHg 75%
    19:00 +20°C° 0.3 mm 1 mps 712 mmHg 81%
    20:00 +19°C° 0.1 mm 1 mps 713 mmHg 84%
    21:00 +16°C° 0.1 mm 1 mps 713 mmHg 87%
    22:00 +15°C° 0.1 mm 1 mps 713 mmHg 90%
    23:00 +14°C° 0 mm 1 mps 713 mmHg 90%

    2 June, Tuesday

    Time Temperature Precipitation Wind Pressure Humidity
    00:00 +14°C° 0 mm 1 mps 713 mmHg 90%
    01:00 +14°C° 0 mm 1 mps 713 mmHg 91%
    02:00 +14°C° 0 mm 1 mps 713 mmHg 89%
    03:00 +14°C° 0 mm 1 mps 713 mmHg 88%
    04:00 +14°C° 0 mm 1 mps 713 mmHg 86%
    05:00 +15°C° 0 mm 1 mps 713 mmHg 83%
    06:00 +16°C° 0 mm 0 mps 713 mmHg 80%
    07:00 +17°C° 0 mm 0 mps 713 mmHg 76%
    08:00 +21°C° 0 mm 1 mps 713 mmHg 68%
    09:00 +22°C° 0 mm 1 mps 713 mmHg 60%
    10:00 +24°C° 0 mm 1 mps 713 mmHg 52%
    11:00 +25°C° 0.1 mm 2 mps 713 mmHg 52%
    12:00 +25°C° 0.1 mm 2 mps 712 mmHg 52%
    13:00 +25°C° 0.1 mm 2 mps 712 mmHg 52%
    14:00 +25°C° 0.3 mm 2 mps 711 mmHg 57%
    15:00 +24°C° 0.3 mm 2 mps 711 mmHg 62%
    16:00 +23°C° 0.3 mm 2 mps 710 mmHg 67%
    17:00 +22°C° 1 mm 1 mps 710 mmHg 74%
    18:00 +22°C° 1 mm 1 mps 710 mmHg 80%
    19:00 +19°C° 1 mm 0 mps 709 mmHg 86%
    20:00 +19°C° 0.8 mm 1 mps 709 mmHg 88%
    21:00 +18°C° 0.8 mm 1 mps 709 mmHg 90%
    22:00 +15°C° 0.8 mm 1 mps 709 mmHg 92%
    23:00 +15°C° 0.3 mm 1 mps 709 mmHg 92%

    3 June, Wednesday

    Time Temperature Precipitation Wind Pressure Humidity
    00:00 +14°C° 0.3 mm 1 mps 709 mmHg 93%
    01:00 +13°C° 0.3 mm 0 mps 708 mmHg 93%
    02:00 +13°C° 0.2 mm 0 mps 708 mmHg 94%
    03:00 +14°C° 0.2 mm 0 mps 708 mmHg 94%
    04:00 +14°C° 0.2 mm 0 mps 708 mmHg 95%
    05:00 +14°C° 0.2 mm 0 mps 707 mmHg 95%
    06:00 +14°C° 0.2 mm 0 mps 707 mmHg 95%
    07:00 +15°C° 0.2 mm 0 mps 707 mmHg 96%
    08:00 +16°C° 0.5 mm 1 mps 707 mmHg 95%
    09:00 +16°C° 0.5 mm 1 mps 706 mmHg 94%
    10:00 +16°C° 0.5 mm 1 mps 706 mmHg 94%
    11:00 +16°C° 0.5 mm 1 mps 706 mmHg 91%
    12:00 +18°C° 0.5 mm 1 mps 706 mmHg 89%
    13:00 +18°C° 0.5 mm 1 mps 705 mmHg 87%
    14:00 +19°C° 0.3 mm 1 mps 705 mmHg 85%
    15:00 +19°C° 0.3 mm 1 mps 705 mmHg 84%
    16:00 +20°C° 0.3 mm 1 mps 704 mmHg 82%
    17:00 +19°C° 0.3 mm 1 mps 704 mmHg 85%
    18:00 +18°C° 0.3 mm 1 mps 704 mmHg 89%
    19:00 +18°C° 0.3 mm 1 mps 704 mmHg 92%
    20:00 +16°C° 0.3 mm 1 mps 704 mmHg 94%
    21:00 +16°C° 0.3 mm 1 mps 704 mmHg 95%
    22:00 +15°C° 0.3 mm 0 mps 705 mmHg 96%
    23:00 +14°C° 1.3 mm 0 mps 704 mmHg 97%
    Show more